Jose Olivera

Recruteur - Central Espanol
13 Janv 2028
Jeudi
Processus

Personnalité

Adaptabilité (6) Ambition (18) Controverse (9) Loyauté (19) Pression (9) Professionnalisme (1) Sportivité (7) Tempérament (11)

Profil

Style d'entraînement Démocratique
Diplôme Continental A
Détermination 2
Gestion des joueurs 10
Motivation 7
Discipline 6
Satisfaction professionnelle
100%
Fatigue
0%
Rôle Recruteur
Salaire 36.1K p/s
Contrat 14.03.2029

Performance

Comportement Bon
Efficacité de l'entraînement
23%
Développement des joueurs
45%
Prévention des blessures
10%
Mise en place tactique
10%

Événements récents

A participé à une réunion de recrutement maintenant
A participé à une réunion de recrutement 7j
A participé à une réunion de recrutement 7j
A participé à une réunion de recrutement 7j
A participé à une réunion de recrutement 14j
A participé à une réunion de recrutement 14j
A participé à une réunion de recrutement 14j
A participé à une réunion de recrutement 21j

Suivi en cours

66
Joueur Club Statut Capacité Confiance Observé Dernière observation Dernier vote
Román Ugarriza Cerrito Actif 95 / 94 48% 1 01.12.2027 -
Michel Silveira Rentistas Actif 78 / 91 41% 1 14.12.2026 -
Brian Orosco Godoy Cruz Actif 117 / 128 40% 1 27.11.2026 Plus d'infos
Franco Malagueño Colegiales Actif 118 / 98 40% 1 25.11.2026 -
Josip Mitrović Slaven Belupo Actif 110 / 95 40% 1 25.11.2026 -
Samuel Lucero Defensa y Justicia Actif 104 / 121 40% 1 24.11.2026 -
Adilson Córdoba Actif 134 / 120 40% 1 23.11.2026 -
Nikita Iosifov Viktoria Plzen Actif 113 / 106 40% 1 23.11.2026 -
Ulises Sánchez Gimnasia y Esgrima Actif 117 / 124 40% 2 22.11.2026 -
Mauro Valiente Estudiantes Actif 126 / 120 40% 2 22.11.2026 -
Rodrigo González Mitre Actif 120 / 126 40% 2 17.11.2026 -
Franco Romero HNK Gorica Actif 84 / 94 40% 1 17.11.2026 -
Enzo Avaro Odd Actif 137 / 94 40% 2 16.11.2026 Plus d'infos
Emiliano Gil Salyut Actif 102 / 106 40% 1 16.11.2026 -
Diego Gaitán Maipú Actif 101 / 125 40% 1 10.11.2026 -
Antony Alonso Deportivo Riestra Actif 109 / 128 40% 2 09.11.2026 -
Julián Cosi Madryn Actif 121 / 99 40% 1 08.11.2026 -
Thomas Ortega Quilmes Actif 104 / 113 40% 1 03.11.2026 -
Alexander Díaz Deportivo Riestra Actif 125 / 122 40% 1 01.11.2026 -
Juergen Elitím Bohemians 1905 Actif 101 / 139 40% 1 01.11.2026 -
Ramiro Hernandes Belgrano Actif 109 / 124 40% 2 22.10.2026 -
Lisandro Montenegro Chacarita Juniors Actif 103 / 128 40% 1 20.10.2026 -
Iñaki Larthirigoyen San Telmo Actif 125 / 112 40% 1 17.10.2026 -
Marco Miori Alvarado Actif 115 / 111 40% 1 16.10.2026 -
Axel Batista Quilmes Actif 118 / 116 40% 1 15.10.2026 -
Lautaro Villegas Banfield Actif 100 / 127 40% 1 15.10.2026 -
Facundo Castet Colón Actif 99 / 114 40% 1 11.10.2026 -
David Veliz Güemes Actif 109 / 108 40% 1 11.10.2026 -
Brian Farioli Estudiantes Actif 128 / 107 40% 1 10.10.2026 -
Oscar Garrido Mitre Actif 118 / 105 40% 1 10.10.2026 -
Estanislao Jara Madryn Actif 101 / 117 40% 1 09.10.2026 -
Valentín Serrano Arsenal Actif 111 / 99 40% 1 08.10.2026 -
Néider Barona Altach Actif 122 / 127 40% 1 02.10.2026 -
Augusto Berrondo Tristán Suárez Actif 112 / 102 40% 1 02.10.2026 -
Juan Yangali San Telmo Actif 123 / 103 40% 1 26.09.2026 -
Diego Valencia Universidad Catolica Actif 104 / 120 40% 2 21.09.2026 Plus d'infos
Matías Núñez Carabobo Actif 98 / 87 40% 1 20.09.2026 -
Jorge Espejo Universidad de Concepcion Actif 110 / 121 40% 1 19.09.2026 -
Esteban Valencia Cobresal Actif 94 / 97 40% 1 18.09.2026 -
Harold Antiñirre Huachipato Actif 105 / 113 40% 2 17.09.2026 -
Jhamir D'Arrigo Melgar Actif 131 / 113 40% 1 17.09.2026 -
Agustín Amado Boston River Actif 130 / 115 40% 1 16.09.2026 -
Job Ochieng Real Sociedad Actif 123 / 103 40% 1 16.09.2026 -
Lautaro Lusnig Deportivo Tachira Actif 105 / 118 40% 1 14.09.2026 -
Agustín Paz Progreso Actif 130 / 111 40% 1 14.09.2026 -
Rodrigo López Pumas UNAM Actif 114 / 113 40% 1 12.09.2026 -
Gabriel Otero Llaneros Actif 99 / 102 40% 1 12.09.2026 -
Jáder Quiñónes Once Caldas Actif 113 / 132 40% 1 11.09.2026 -
Aldair Gutiérrez Atletico Bucaramanga Actif 122 / 123 40% 1 11.09.2026 -
Daniel Arcila Leon Actif 99 / 106 40% 2 10.09.2026 -
Agustín Venezia Iquique Actif 119 / 106 40% 1 10.09.2026 -
Juan Manuel Zapata Envigado Actif 102 / 132 40% 1 07.09.2026 -
Andrés Sarmiento Atletico Nacional Actif 124 / 112 40% 1 03.09.2026 -
Adrián Cuadra Antofagasta Actif 104 / 117 40% 1 02.09.2026 -
Mariano Bracamonte Deportivo Riestra Actif 114 / 129 40% 1 29.08.2026 -
Jesús Rivas Junior Actif 122 / 111 40% 1 23.08.2026 -
William Hurtado Envigado Actif 96 / 120 40% 1 20.08.2026 -
Aldahir Pérez Tijuana Actif 105 / 128 40% 1 15.08.2026 -
Bastián Yáñez O'Higgins Actif 119 / 113 40% 1 13.08.2026 -
Mateo Garavito Deportivo Pasto Actif 124 / 107 40% 1 12.08.2026 -
Tobías Bovone Deportivo Pereira Actif 104 / 94 40% 1 10.08.2026 -
Jesús Vargas Metropolitanos Actif 110 / 117 40% 1 10.08.2026 -
Esneyder Mena Deportivo Pasto Actif 100 / 121 40% 1 06.08.2026 -
Darío Cáceres Defensa y Justicia Actif 113 / 104 40% 1 06.08.2026 -
Yílmar Velásquez Santa Fe Actif 129 / 119 40% 1 01.08.2026 -
Jaen Pineda Real Cartagena Actif 118 / 134 40% 1 01.08.2026 -